Location: Hauppauge
(40.8260°N, 73.2030°W)
Time: 02:22:54
(UTC-04:00)

Daily predictions for brighter satellites

Satellite Brightness Start Highest point End
(mag) Time Altitude Azimuth Time Altitude Azimuth Time Altitude Azimuth
Cosmos 2322 Rocket 4.3 03:00:48 22° ENE 03:00:48 22° ENE 03:03:14 10° NE
SL-16 R/B 4.2 03:03:46 24° ENE 03:03:46 24° ENE 03:06:28 10° NE
FALCON 9 R/B 4.2 03:08:16 68° S 03:08:23 68° S 03:43:22 10° ESE
CENTAUR R/B 3.2 03:29:41 50° NNE 03:29:41 50° NNE 03:34:42 10° NE
USA 215 4.0 03:23:33 10° ESE 03:29:48 49° NNE 03:33:34 24° NNW
Cosmos 2360 Rocket 4.1 03:31:01 21° ESE 03:31:21 22° E 03:35:32 10° NE
Cosmos 1980 Rocket 3.8 03:34:35 28° N 03:34:35 28° N 03:37:19 10° NNE
ADEOS Rocket 3.9 03:28:22 10° NNE 03:31:53 39° NNE 03:31:53 39° NNE
CZ-2D R/B 3.6 03:30:22 10° NNE 03:33:13 32° N 03:33:13 32° N
Cosmos 2315 Rocket 4.4 03:41:57 59° NE 03:41:57 59° NE 03:47:07 10° NNE
SL-16 R/B 4.1 03:45:14 24° NNW 03:45:14 24° NNW 03:47:33 10° NNW
ARIANE 5 R/B 4.3 03:36:45 10° N 03:38:55 26° N 03:38:55 26° N
Resurs 1-4 Rocket 3.7 03:38:49 10° N 03:41:19 29° N 03:41:19 29° N
Cosmos 2263 Rocket 2.9 03:44:54 10° NNW 03:56:04 - SE 03:49:51 49° NE
ISS -0.4 04:08:10 11° E 04:08:10 11° E 04:08:17 10° E
Lacrosse 4 Rocket 4.1 04:04:58 10° N 04:07:54 18° NE 04:10:51 10° E
ADEOS II 3.5 04:08:50 10° NNE 04:13:36 33° E 04:16:28 20° SSE
Cosmos 2074 Rocket 4.4 04:10:48 10° N 04:17:01 62° E 04:23:10 10° SSE
CZ-4B R/B 4.0 04:27:10 10° NNE 04:32:40 51° E 04:36:25 20° S
Cosmos 1500 3.9 04:34:32 10° N 04:38:18 52° E 04:38:47 48° ESE
Cosmos 1544 Rocket 3.5 04:36:16 10° N 04:40:45 82° E 04:41:13 70° SSE
Cosmos 2322 Rocket 2.9 04:42:37 37° NW 04:42:37 37° NW 04:47:31 10° N
Lacrosse 5 2.3 04:44:39 44° S 04:44:39 44° S 04:48:18 10° SSE
MOS 1 Rocket 3.2 04:38:54 10° N 04:43:22 65° NW 04:43:22 65° NW
SL-16 R/B 2.9 04:45:38 37° NW 04:45:38 37° NW 04:50:45 10° N
Okean O Rocket 1.5 04:42:34 10° NNE 04:47:02 85° ESE 04:47:43 64° S
COSMOS 2428 3.8 04:43:13 14° S 04:47:40 43° ESE 04:53:00 10° NE
Cosmos 2184 Rocket 3.8 04:43:56 10° N 04:50:08 77° W 04:56:23 10° S
Cosmos 2219 Rocket 4.0 04:54:29 10° SSE 04:59:13 29° ESE 05:03:59 10° NE
Cosmos 1238 Rocket 3.8 04:58:30 20° SE 05:00:04 33° E 05:02:46 10° NNE
CZ-4B R/B 2.8 04:56:29 10° N 04:59:35 58° NNW 04:59:35 58° NNW
ERS-2 3.5 05:01:21 10° NNE 05:04:51 39° E 05:08:20 10° S
Cosmos 1844 Rocket 3.6 05:03:41 10° NNW 05:09:08 49° ENE 05:14:30 10° SE
USA 215 3.3 05:06:21 10° SSE 05:12:44 54° SW 05:19:08 10° NW
Cosmos 1455 Rocket 3.2 05:10:34 10° NNW 05:14:50 50° W 05:17:02 26° SSW
Cosmos 2360 Rocket 2.4 05:12:49 34° WSW 05:14:55 52° WNW 05:20:26 10° NNE
CZ-2D R/B 4.2 05:12:59 10° NW 05:14:34 12° NW 05:14:34 12° NW
Cosmos 1812 4.3 05:17:22 21° NW 05:17:22 21° NW 05:19:22 10° NNW
Cosmos 2278 Rocket 4.4 05:11:37 10° N 05:16:19 26° NE 05:20:59 10° ESE
ADEOS Rocket 4.4 05:15:37 10° NNW 05:18:50 16° WNW 05:18:51 16° WNW
Meteor 1-12 Rocket 4.3 05:14:00 10° NNW 05:19:29 54° W 05:25:00 10° S
IRS-1C Rocket 4.1 05:14:22 10° N 05:19:32 58° WNW 05:22:50 22° SW
CENTAUR R/B 4.0 05:16:52 17° WNW 05:19:37 22° NNW 05:24:59 10° NNE
Cosmos 2237 Rocket 4.3 05:17:53 10° SSE 05:22:34 27° ESE 05:27:16 10° NE
PAYLOAD B 4.4 05:17:32 10° N 05:23:01 55° WNW 05:26:57 19° SW
Cosmos 2154 Rocket 3.9 05:17:25 10° N 05:23:38 79° W 05:29:49 10° S
Tiangong 2 1.2 05:25:36 41° WNW 05:26:29 67° N 05:29:37 10° E
Cosmos 1570 Rocket 3.9 05:24:07 17° SSW 05:28:13 73° WNW 05:33:28 10° NNE
USA 116 3.9 05:26:45 10° SSE 05:30:46 86° E 05:35:23 10° NNW
Cosmos 2263 Rocket 3.8 05:29:43 10° NW 05:38:12 - SSW 05:31:16 16° WNW
Cosmos 1340 3.5 05:34:52 28° W 05:35:19 28° WNW 05:38:39 10° NNW
Cosmos 2333 Rocket 3.2 05:30:39 10° S 05:36:04 48° ESE 05:41:33 10° NE
Meteor 1-31 Rocket 2.7 05:32:35 10° NNE 05:36:25 86° ESE 05:40:13 10° SSW
Cosmos 1898 Rocket 4.4 05:32:04 10° N 05:37:09 51° ENE 05:42:11 10° SE
Cosmos 807 4.5 05:33:56 10° S 05:37:14 87° W 05:41:21 10° N
Cosmos 1536 Rocket 4.2 05:36:48 22° SW 05:39:04 35° WNW 05:43:12 10° N
Cosmos 1743 2.7 05:36:44 10° NNW 05:40:33 58° W 05:44:18 10° S
Cosmos 1666 2.8 05:37:03 10° N 05:40:56 81° E 05:44:48 10° S
ISS -3.1 05:40:53 28° W 05:41:48 34° SW 05:44:49 10° SSE
Cosmos 2181 Rocket 4.0 05:36:25 10° S 05:42:36 89° W 05:48:55 10° N
ATLAS 5 CENTAUR R/B 3.7 05:37:20 10° NNW 05:42:56 41° NE 05:48:59 10° ESE
EO 1 Del DPAF 4.4 05:44:26 21° WSW 05:45:20 23° W 05:48:27 10° NW
Meteor 1-13 Rocket 4.2 05:40:11 10° SSW 05:45:37 62° WNW 05:51:11 10° N
Cosmos 2322 4.4 05:42:22 19° WSW 05:45:46 35° WNW 05:51:00 10° N
Okean 1-7 Rocket 3.6 05:41:54 10° S 05:46:25 90° ESE 05:50:57 10° N
Lacrosse 4 Rocket 1.6 05:42:48 10° NW 05:46:49 46° WSW 05:50:54 10° S
CZ-2C R/B 4.4 05:43:34 10° SSW 05:47:40 32° W 05:51:45 10° NW
SJ-6F 4.5 05:44:47 10° NNE 05:48:53 81° ESE 05:52:57 10° S
SL-8 Rocket 4.2 05:43:26 10° N 05:49:42 76° E 05:55:51 10° SSE
ADEOS II 2.9 05:48:40 10° N 05:53:12 30° WNW 05:57:26 11° SW
Cosmos 1975 4.2 05:50:55 10° NW 05:53:45 19° W 05:55:04 16° WSW
DELTA 2 R/B (1) 3.8 05:49:49 16° WSW 05:54:12 65° SSE 05:59:43 10° E
Cosmos 2341 Rocket 4.1 05:53:29 10° NNW 05:59:35 56° W 06:05:36 10° SSW
Cosmos 2333 4.4 05:59:09 10° SW 06:04:37 51° WNW 06:10:12 10° NNE
Cosmos 1844 3.7 06:01:58 10° NNW 06:07:44 74° WSW 06:13:24 10° SSE
NOAA 6 4.0 06:04:03 10° N 06:09:11 79° WNW 06:14:17 10° SSW
Cosmos 2218 Rocket 4.1 06:04:16 10° N 06:10:42 89° W 06:17:03 10° S
Cosmos 1937 Rocket 3.8 06:05:57 10° NNW 06:11:17 75° ENE 06:16:34 10° SSE
Cosmos 1606 Rocket 3.7 06:07:14 10° N 06:11:44 85° E 06:16:13 10° S
CZ-4B R/B 4.4 06:08:28 10° NNW 06:12:50 24° WNW 06:17:09 10° WSW
Cosmos 1763 Rocket 4.2 06:09:48 10° S 06:14:45 58° ESE 06:19:46 10° NNE
Cosmos 2298 Rocket 4.0 06:10:25 10° NNW 06:15:47 82° WSW 06:21:06 10° SSE
SL-16 R/B 4.2 06:11:41 10° SSE 06:16:38 32° ESE 06:21:36 10° NE
Iridium 2 3.7 06:12:56 10° N 06:16:44 62° W 06:20:29 10° S
Cosmos 841 Rocket 4.2 06:20:48 10° S 06:25:52 60° ESE 06:30:56 10° NNE
Okean 2 3.5 06:22:04 10° SSW 06:26:09 57° W 06:30:16 10° N
Meteor 1-23 Rocket 4.4 06:20:56 10° SSW 06:26:38 56° WNW 06:32:19 10° N
